Regional Weather Roundup
Issued by NWS

Home | Current Version | Previous Version | Text Only | Print | Product List | Glossary Off
Versions: 1 2 3 4 5 6 7 8 9 10 11 12 13 14 15 16 17 18 19 20 21 22 23 24 25 26 27 28 29 30 31 32 33 34 35 36 37 38 39 40 41 42 43 44 45 46 47 48 49 50

000
ASUS43 KFSD 141910
RWRSD

WEATHER ROUNDUP FOR SOUTH DAKOTA
NATIONAL WEATHER SERVICE SIOUX FALLS SD
200 PM CDT SUN SEP 14 2014

NOTE: "FAIR" INDICATES FEW OR NO CLOUDS BELOW 12,000 FEET WITH NO
SIGNIFICANT WEATHER AND/OR OBSTRUCTIONS TO VISIBILITY.


SDZ001>005-009-010-012>017-142000-
NORTHWEST AND NORTH CENTRAL SOUTH DAKOTA

CITY           SKY/WX    TMP DP  RH WIND       PRES   REMARKS
BUFFALO          N/A     57  35  43 SE10G18   30.07F
FAITH            N/A     53  38  56 SE8       30.15F
MOBRIDGE       CLOUDY    54  40  59 NW5       30.15F
$$

SDZ012>016-024>037-041>051-057-063-072>074-142000-
SOUTHWEST AND SOUTH CENTRAL SOUTH DAKOTA

CITY           SKY/WX    TMP DP  RH WIND       PRES   REMARKS
RAPID CTY ARPT CLOUDY    51  36  56 SE8       30.14F
PIERRE         CLOUDY    55  38  52 VRB5      30.15F
CUSTER         CLOUDY    46  36  68 E8        30.12S
ELLSWORTH AFB  CLOUDY    51  37  59 VRB7      30.14F
PHILIP         CLOUDY    54  38  54 E13       30.14F
PINE RIDGE     CLOUDY    58  43  57 E9        30.09F
WINNER         MOCLDY    61  42  49 NE10G16   30.14F
$$

SDZ004>011-016>023-039-040-142000-
NORTHEAST SOUTH DAKOTA

CITY           SKY/WX    TMP DP  RH WIND       PRES   REMARKS
ABERDEEN       CLOUDY    57  42  57 NW7       30.16F
WATERTOWN      CLOUDY    56  38  50 W6        30.15F
SISSETON         N/A     59  42  53 NW8       30.13F
$$

SDZ017-020-022-023-036>040-048>070-142000-
SOUTHEAST SOUTH DAKOTA

CITY           SKY/WX    TMP DP  RH WIND       PRES   REMARKS
SIOUX FALLS    PTSUNNY   62  43  49 CALM      30.15F
HURON          CLOUDY    58  39  49 NE3       30.16F
CHAMBERLAIN      N/A     58  40  51 E3        30.15F
MITCHELL       CLOUDY    60  40  47 CALM      30.16F
YANKTON        MOSUNNY   61  45  55 NE3       30.14F
$$

ABBREVIATIONS USED IN REMARKS
   TC - TEMPERATURE IN CELSIUS
  WCI - WIND CHILL INDEX
   HX - HEAT INDEX
  VSB - VISIBILITY




USA.gov is the U.S. government's official web portal to all federal, state and local government web resources and services.